Temp
17 16 16 17 17 17 17 16 16 16 16 16 16 16 16 15 15 15 15 15 15 15 14 14 14 14 13 13 13 13 13 12 13 13 14 14 14 14 14 14 15 15 15 13 11 10 10 10 9 9 9 9 9 9 10 10 11 11 11 10 9 9 8 8 9 10 11 10 10
17 16 16 16 16 16 17 17 16 16 16 16 16 16 16 16 16 16 15 15 15 15 15 14 14 14 14 13 13 13 13 12 13 13 13 13 13 13 13 13 13 13 13 12 11 10 9 9 9 9 9 9 9 9 10 10 11 11 11 10 9 8 8 7 9 9 10 9 8
17 17 16 16 16 16 16 16 16 16 16 16 16 16 16 15 15 15 15 15 15 15 15 14 14 14 14 13 13 13 13 12 12 12 13 13 12 12 12 12 12 11 11 11 10 9 9 9 9 9 9 9 9 9 10 10 10 11 11 10 9 8 7 7 8 8 8 8 7
17 17 16 16 16 16 16 16 16 16 16 16 16 15 15 15 15 15 15 15 15 15 15 14 14 14 14 13 13 13 13 12 12 12 12 12 12 12 12 11 11 10 10 10 9 9 9 9 9 9 9 9 9 9 9 10 10 10 10 9 8 7 7 7 7 7 7 7 7
17 17 17 16 16 16 16 16 16 16 16 16 16 15 15 15 15 15 15 15 15 15 15 14 14 14 13 13 13 13 12 12 12 12 12 12 11 11 11 11 10 10 10 9 9 9 9 9 9 9 9 9 9 9 9 9 9 8 8 8 7 6 6 7 6 6 6 6 7
17 17 17 17 16 16 16 16 16 16 16 16 16 16 15 15 15 15 15 15 15 15 15 14 14 14 13 13 13 12 12 12 12 12 11 11 11 11 10 10 10 10 10 9 9 9 8 8 8 8 9 9 9 9 9 8 7 7 6 6 5 6 6 6 6 6 6 6 6
17 17 17 17 17 17 16 16 16 16 16 16 15 16 16 16 15 15 15 15 15 14 14 14 14 13 13 13 12 12 12 11 11 11 11 11 11 10 10 10 10 9 9 9 9 8 8 8 8 8 9 9 9 8 7 7 6 5 4 4 5 5 5 5 5 6 6 6 5
16 16 16 17 17 17 16 16 16 16 15 15 16 16 15 15 15 15 14 14 14 14 14 14 14 13 13 12 12 11 11 11 11 11 10 10 10 10 10 10 9 9 9 9 8 8 7 7 8 8 8 8 8 7 6 5 5 4 4 4 4 4 5 5 5 5 5 5 4
17 17 16 16 16 16 16 16 16 16 15 15 15 15 15 15 15 14 14 14 14 14 14 14 14 13 13 12 11 11 11 10 10 10 10 10 10 10 10 9 9 9 8 8 8 8 8 8 8 8 8 8 7 6 5 4 4 4 4 4 4 4 4 4 4 4 4 4 3
16 17 17 17 16 16 16 16 16 15 15 15 15 15 15 15 14 14 14 14 14 14 14 14 14 13 13 12 11 11 10 10 10 10 10 10 10 9 9 9 9 8 8 8 8 8 8 8 8 8 7 7 6 5 4 3 3 3 4 3 3 3 3 4 3 3 3 3 3
16 16 16 16 16 16 16 16 15 15 15 15 15 15 14 14 14 14 14 14 14 14 14 14 13 13 12 11 11 10 10 10 10 10 9 9 9 9 8 8 8 8 8 7 7 7 7 7 7 7 6 5 5 4 3 3 3 3 3 3 3 3 3 3 3 3 3 3 3
14 15 15 16 16 16 16 15 15 15 15 15 14 14 14 14 14 14 14 14 13 13 13 13 13 12 12 11 10 10 9 9 9 9 9 9 8 8 8 7 7 7 7 7 7 7 6 6 6 6 5 4 4 3 3 3 3 3 2 2 2 2 2 2 2 3 3 3 3
13 14 14 14 15 15 15 15 14 14 14 14 13 13 13 13 13 13 13 13 13 13 13 12 12 12 11 11 10 10 9 9 9 8 8 8 7 7 7 7 7 7 7 7 6 6 6 5 5 5 4 4 3 3 3 3 3 2 2 2 2 2 2 2 2 2 2 2 2
13 13 13 13 13 14 14 14 13 13 13 13 13 13 13 13 13 13 13 13 13 12 12 12 11 11 11 10 10 10 9 9 8 8 7 7 7 7 7 7 6 6 6 6 5 5 5 5 4 4 4 3 3 2 2 2 2 2 2 2 2 2 2 2 2 2 2 1 1
12 12 12 12 12 12 12 12 12 12 12 12 12 12 13 13 13 13 12 12 12 12 12 11 11 10 10 10 9 9 8 8 7 7 6 6 6 6 6 6 6 5 5 5 4 4 4 4 4 3 3 3 3 2 1 2 2 2 2 2 2 2 2 2 1 1 1 1 2
11 11 11 11 11 12 12 12 12 12 12 12 12 12 12 12 12 12 12 12 12 12 11 11 10 10 9 9 9 8 7 7 6 6 6 6 6 6 6 5 5 5 4 4 4 3 3 3 3 3 2 2 2 1 1 1 1 2 2 2 2 2 1 1 1 1 2 2 2
11 11 11 11 11 11 12 12 12 12 12 12 12 12 12 12 12 12 11 11 11 11 10 10 9 9 8 8 7 7 6 6 6 6 5 5 5 5 5 5 4 4 3 3 3 3 2 2 2 2 2 1 1 1 1 1 1 2 2 2 1 1 1 1 2 2 2 2 2
11 11 11 11 11 11 11 11 12 12 12 11 11 11 11 11 11 11 11 10 10 9 9 8 8 7 7 7 6 6 6 5 5 5 5 5 4 4 4 4 3 3 3 3 2 2 2 2 1 1 1 1 1 1 1 1 1 1 1 1 1 1 1 2 2 2 2 2 1
10 10 10 10 10 10 11 11 11 11 11 11 11 11 11 10 10 10 9 9 8 8 8 7 7 6 6 6 6 5 5 5 5 4 4 4 4 4 3 3 3 2 2 2 2 2 1 1 1 1 1 1 1 1 1 1 1 1 1 1 1 1 1 1 2 2 1 1 1
9 9 10 10 10 10 10 10 10 10 10 10 10 10 10 9 9 9 8 8 7 7 7 6 6 5 5 5 5 5 4 4 4 4 4 3 3 3 3 2 2 2 2 1 1 1 1 1 1 1 1 1 1 1 1 1 1 1 1 1 1 1 1 1 1 1 1 1 1
8 9 9 9 10 10 10 10 10 10 9 9 9 9 8 8 8 8 7 7 7 6 6 6 5 5 5 5 4 4 4 4 3 3 3 3 2 2 2 2 2 1 1 1 1 1 1 1 1 1 0 1 1 1 1 1 1 1 1 1 1 1 1 1 1 1 1 1 1
8 8 8 9 9 9 9 9 9 9 8 8 8 7 7 7 7 7 6 6 6 6 5 5 5 4 4 4 4 4 3 3 3 3 2 2 2 2 2 1 1 1 1 1 1 1 1 1 0 0 1 1 1 1 1 1 1 1 1 1 1 1 1 1 1 1 1 1 1
7 8 8 8 8 8 8 8 8 7 7 7 7 6 6 6 6 5 5 5 5 5 4 4 4 4 3 3 3 3 3 2 2 2 2 2 1 1 1 1 1 1 1 1 1 1 1 0 0 1 1 1 1 1 1 1 1 1 1 1 1 1 1 1 1 1 1 1 1
7 7 7 7 7 7 7 7 7 7 6 6 6 5 5 5 5 4 4 4 4 4 4 3 3 3 3 3 3 2 2 2 1 1 1 1 1 1 1 1 1 1 1 1 1 1 1 1 1 1 1 1 1 1 1 1 1 1 1 1 1 1 1 1 1 1 1 0 0
6 6 6 6 6 6 7 6 6 6 5 5 5 5 4 4 4 4 3 3 3 3 3 2 2 2 2 2 2 2 2 1 1 1 1 1 1 1 1 1 1 1 1 1 1 1 1 1 1 1 1 1 1 1 1 1 1 1 1 1 1 1 1 0 0 0 0 -0 -0
5 6 6 6 6 6 6 6 5 5 4 4 4 4 3 3 3 3 3 2 2 2 2 2 2 2 2 2 1 1 1 1 1 1 1 1 1 1 1 1 1 1 1 1 1 1 1 1 1 1 1 1 1 1 1 1 1 1 1 1 1 0 0 0 -0 -0 -0 -0 -0
4 5 5 5 5 5 5 5 4 4 3 3 3 3 2 2 2 2 2 2 2 1 1 1 1 1 1 1 1 1 1 1 1 1 1 1 1 1 1 1 1 1 1 1 1 1 1 1 1 1 1 1 1 1 1 1 0 0 0 0 0 -0 -0 -0 -1 -1 -1 -1 -1
3 3 4 4 3 3 3 3 3 3 3 2 2 2 2 2 2 2 1 1 1 1 1 1 1 1 1 1 1 1 1 1 1 1 1 1 1 1 1 1 1 1 1 1 1 1 1 1 1 1 1 1 1 1 1 0 0 0 -0 -0 -1 -1 -1 -1 -1 -1 -1 -1 -1
2 2 2 2 2 2 2 2 2 2 2 2 2 1 1 1 1 1 1 1 1 1 1 1 1 1 1 1 1 1 1 1 1 1 1 1 1 1 1 1 1 1 1 1 1 1 1 0 0 1 1 1 1 1 0 0 0 -0 -0 -1 -1 -1 -1 -1 -1 -2 -2 -2 -2
2 2 2 2 1 1 1 1 1 1 1 1 1 1 1 1 1 1 1 1 1 1 1 1 1 1 1 1 1 1 1 1 1 1 1 1 1 1 1 1 1 1 1 1 1 1 0 0 0 0 0 0 0 0 0 -0 -0 -0 -1 -1 -1 -2 -2 -2 -2 -2 -2 -2 -2
1 1 1 1 1 1 1 1 1 1 1 1 1 1 1 1 1 1 1 1 1 1 1 1 1 1 1 1 1 0 0 0 1 1 1 1 1 1 1 1 1 1 1 1 0 0 -0 -0 0 0 0 0 0 0 -0 -0 -1 -1 -1 -2 -2 -2 -2 -2 -2 -3 -2 -2 -2
1 1 1 1 1 1 1 1 1 1 1 1 1 1 1 1 1 1 1 1 1 1 1 0 0 0 0 0 0 0 0 0 1 1 1 1 1 1 1 1 1 0 0 0 -0 -0 -0 -0 -0 -0 -0 -0 -0 -0 -1 -1 -1 -2 -2 -2 -2 -3 -3 -3 -3 -3 -3 -2 -2
1 1 1 0 0 0 0 0 0 1 1 1 1 0 0 0 0 0 0 0 0 0 0 0 0 -0 0 0 0 0 0 0 1 1 1 1 1 0 0 0 0 -0 -0 -0 -1 -1 -1 -1 -1 -1 -1 -1 -1 -1 -1 -2 -2 -2 -3 -3 -3 -3 -3 -3 -3 -2 -2 -2 -2
0 0 0 0 0 0 0 0 0 0 0 0 0 0 0 0 0 -0 -0 -0 -0 -0 -0 -0 -0 -0 -0 0 0 0 0 0 0 0 0 0 0 0 0 -0 -0 -0 -1 -1 -1 -1 -1 -1 -1 -1 -1 -1 -1 -2 -2 -2 -3 -3 -3 -3 -3 -3 -3 -2 -2 -2 -2 -2 -2
0 0 0 0 0 0 0 0 0 0 -0 -0 -0 -0 -0 -0 -0 -0 -0 -0 -0 -0 -0 -0 -0 -0 -0 -0 0 0 0 0 0 0 0 0 0 0 -0 -0 -0 -1 -1 -1 -1 -2 -2 -2 -2 -2 -2 -2 -2 -2 -3 -3 -3 -3 -3 -3 -3 -2 -2 -2 -2 -2 -2 -2 -2
-0 -0 -0 -0 -0 -0 -0 -0 -0 -0 -0 -1 -1 -1 -1 -1 -1 -1 -1 -0 -0 -0 -0 -0 -0 -0 -0 -0 -0 -0 -0 -0 -0 -0 -0 0 -0 -0 -0 -0 -1 -1 -1 -1 -2 -2 -2 -2 -2 -2 -2 -2 -3 -3 -3 -3 -3 -3 -3 -2 -2 -2 -2 -2 -3 -3 -3 -3 -3
-0 -0 -1 -1 -1 -1 -1 -1 -1 -1 -1 -1 -1 -1 -1 -1 -1 -1 -1 -0 -0 -0 -0 -0 -0 -0 -0 -0 -0 -0 -0 -0 -0 -0 -0 -0 -0 -0 -0 -1 -1 -1 -1 -2 -2 -2 -2 -2 -2 -2 -2 -2 -3 -3 -3 -3 -3 -3 -3 -3 -3 -3 -3 -3 -3 -3 -3 -3 -3
-1 -1 -1 -1 -1 -1 -1 -1 -1 -1 -1 -1 -1 -1 -1 -1 -1 -1 -1 -0 -0 -1 -1 -1 -1 -1 -0 -0 -0 -0 -0 -0 -0 -0 -0 -0 -0 -0 -1 -1 -1 -1 -2 -2 -2 -2 -2 -2 -2 -2 -2 -2 -2 -2 -2 -2 -2 -3 -3 -3 -3 -3 -3 -3 -3 -3 -3 -3 -3
-1 -1 -1 -1 -1 -1 -1 -1 -1 -1 -1 -1 -1 -1 -1 -1 -1 -1 -1 -1 -1 -1 -1 -1 -1 -1 -0 -0 -0 -0 -0 -0 -0 -0 -0 -0 -0 -1 -1 -1 -1 -2 -2 -2 -2 -2 -2 -2 -2 -2 -2 -2 -2 -2 -2 -2 -2 -3 -3 -3 -3 -3 -3 -3 -3 -4 -4 -4 -4
-1 -1 -1 -1 -1 -1 -1 -1 -1 -1 -1 -1 -1 -1 -1 -1 -1 -1 -1 -1 -1 -1 -1 -1 -1 -1 -1 -0 -0 -0 -0 -0 -0 -0 -0 -1 -1 -1 -1 -1 -1 -2 -2 -2 -2 -2 -2 -2 -2 -2 -2 -2 -2 -2 -2 -2 -3 -3 -3 -3 -3 -3 -4 -4 -4 -4 -4 -4 -4
-1 -1 -1 -1 -1 -1 -1 -1 -1 -1 -1 -1 -1 -1 -1 -1 -1 -1 -1 -1 -1 -1 -1 -1 -1 -1 -1 -0 -0 -0 -1 -1 -1 -1 -1 -1 -1 -1 -1 -1 -1 -1 -1 -1 -2 -2 -2 -2 -2 -2 -2 -2 -2 -2 -2 -2 -3 -3 -3 -3 -4 -4 -4 -4 -4 -4 -4 -4 -4
Height
758 759 759 760 760 760 760 761 761 761 761 761 762 762 762 763 763 764 764 765 765 766 766 766 767 767 768 769 770 770 771 772 773 776 777 778 778 779 779 779 777 776 777 780 783 786 788 789 791 792 792 793 793 794 796 797 799 800 801 801 801 802 804 806 808 809 810 811 811
757 758 758 759 759 760 760 760 760 760 760 761 761 761 761 761 761 762 762 763 763 763 764 765 765 766 766 767 768 769 770 771 771 773 775 776 777 777 777 777 776 775 776 778 781 783 786 787 789 789 790 791 791 792 793 794 796 797 798 799 800 801 802 804 807 808 809 809 810
756 756 757 758 758 759 759 759 759 759 759 759 760 760 760 759 760 760 760 761 761 762 762 763 763 764 765 765 766 767 768 769 770 771 772 773 774 775 774 775 775 776 776 778 780 781 784 786 787 788 789 790 790 791 792 792 793 793 794 796 797 799 801 803 805 806 806 807 808
755 755 756 756 757 758 758 758 758 758 758 758 758 758 759 759 759 759 759 760 760 761 761 761 761 762 763 764 765 766 766 768 769 769 770 771 772 772 773 773 774 775 776 778 779 781 782 784 786 787 788 789 790 790 791 791 791 791 791 793 795 796 799 801 802 803 804 805 807
755 755 755 755 756 756 756 757 757 757 757 757 758 758 758 758 758 758 758 759 759 759 760 760 760 761 761 762 763 764 765 766 767 768 769 770 770 771 772 772 774 775 776 777 779 780 782 783 784 785 786 787 789 789 790 790 790 790 790 791 793 795 797 798 800 801 802 804 806
755 755 755 755 755 755 756 756 756 756 756 757 757 757 757 756 757 757 757 758 758 759 759 760 760 760 761 761 762 763 764 765 766 766 767 768 769 770 771 772 773 774 775 777 778 780 781 782 782 784 785 786 787 788 789 789 789 789 789 790 791 793 795 797 798 800 801 803 804
756 756 755 755 755 754 754 755 755 755 756 756 756 756 756 756 756 756 756 757 758 758 759 759 759 759 759 760 761 761 762 763 764 765 766 767 767 769 770 771 772 773 774 776 777 778 779 781 782 783 784 786 786 787 787 787 788 788 789 790 791 792 794 796 797 799 800 801 802
755 755 755 755 754 754 754 754 754 754 755 755 755 754 754 755 755 755 756 756 757 757 758 758 758 758 758 759 760 761 761 762 763 764 765 766 767 768 769 770 771 772 773 774 775 776 778 780 781 782 783 784 785 785 786 786 787 788 789 790 791 791 793 795 797 798 798 799 800
754 754 754 754 754 753 753 753 753 753 754 754 754 753 753 754 754 755 755 756 756 756 756 756 757 757 758 758 759 760 760 761 761 762 764 765 766 767 768 769 770 771 772 773 774 776 777 779 781 782 782 783 784 784 785 786 786 787 789 789 790 791 793 795 796 797 797 798 800
753 752 752 752 752 752 752 752 752 752 752 752 752 753 753 753 753 754 754 754 755 755 755 755 756 756 757 758 758 759 759 760 761 762 763 764 765 766 767 768 769 770 771 772 774 776 777 778 780 781 781 782 783 783 784 785 786 787 788 789 790 791 793 794 795 796 797 799 800
751 751 751 751 751 751 751 751 751 751 751 751 751 752 752 752 753 753 753 753 753 753 753 754 754 755 756 756 757 758 759 760 760 761 762 763 764 765 766 767 768 769 771 772 774 776 776 777 778 779 780 781 782 782 783 784 785 786 788 789 790 791 792 794 795 796 798 799 801
750 750 749 749 749 749 749 749 749 750 750 750 750 751 751 751 752 752 752 752 752 752 753 753 754 754 755 756 756 757 758 759 760 761 762 763 764 765 766 767 768 769 771 773 774 774 775 776 776 777 779 780 781 781 782 784 785 786 787 789 790 791 792 794 795 797 798 800 801
750 749 748 748 747 747 747 748 748 748 749 749 750 750 751 751 751 751 751 751 751 752 752 752 753 754 754 755 756 756 757 758 759 760 761 762 763 764 765 766 768 769 771 772 772 773 773 774 775 776 777 779 780 781 782 783 784 786 787 788 790 791 792 794 795 796 798 799 801
749 748 748 747 747 746 746 746 747 747 748 748 749 749 750 750 750 750 751 751 751 751 751 752 752 753 754 754 755 756 757 758 759 760 761 762 762 763 765 766 767 768 770 771 771 772 773 773 774 775 776 778 780 781 782 783 784 785 786 788 790 791 792 794 795 796 798 799 801
748 748 747 747 747 746 746 746 746 747 747 748 748 749 749 749 749 750 750 750 750 751 751 751 752 753 753 754 755 756 756 757 758 760 761 761 762 763 764 766 766 767 768 770 771 772 773 773 774 775 776 778 779 781 782 783 784 786 787 788 790 791 792 794 795 796 798 799 801
748 747 747 746 746 746 746 746 746 747 747 748 748 748 748 749 749 749 749 749 750 750 751 751 751 752 753 754 755 755 756 757 758 759 760 761 762 763 764 765 766 767 768 769 770 771 773 774 775 775 776 778 779 781 782 784 785 786 787 789 790 791 793 794 796 797 798 800 801
747 746 746 746 746 746 746 746 746 747 747 748 748 748 748 748 748 748 749 749 749 749 750 750 751 751 752 753 754 755 756 757 758 759 760 761 762 764 765 766 767 768 768 769 770 772 773 774 775 776 777 778 779 781 782 784 785 786 788 789 791 792 793 795 796 797 799 800 801
745 745 745 744 745 745 745 746 746 746 747 748 748 748 748 748 748 748 748 749 749 749 750 750 751 751 752 753 754 755 756 757 758 760 761 762 763 764 766 767 768 768 769 770 771 772 773 775 776 776 777 778 780 781 783 784 786 787 789 790 791 793 794 796 796 797 798 800 801
745 744 744 744 744 745 746 746 746 747 747 747 747 747 747 747 747 748 748 749 750 750 750 750 751 751 752 753 754 755 756 757 759 760 761 762 764 765 766 767 768 769 770 771 772 773 774 776 776 777 778 779 781 782 784 785 786 788 790 791 792 794 795 796 797 798 799 800 801
746 745 745 745 745 745 746 746 747 747 747 747 746 746 746 746 747 748 749 749 750 750 750 751 751 752 753 753 754 756 757 758 759 760 761 763 764 765 766 767 768 769 771 771 773 774 776 777 778 779 780 781 782 783 784 786 787 789 790 792 793 794 795 796 797 798 799 801 802
747 746 746 746 746 746 746 746 747 747 747 747 747 746 746 747 747 748 749 749 750 750 751 751 751 752 753 754 755 756 757 758 760 761 762 763 764 765 766 768 769 770 771 773 774 776 777 778 780 781 781 782 783 784 785 786 788 789 791 792 793 794 795 796 797 798 800 801 802
748 747 746 746 746 746 746 746 747 747 747 747 747 747 747 748 748 749 749 750 750 750 751 751 752 752 753 754 755 756 758 759 760 761 762 763 765 766 767 768 770 771 773 774 776 777 778 780 781 782 783 784 784 785 786 787 788 789 791 792 793 794 795 796 797 799 800 801 801
748 748 747 747 746 746 746 746 747 747 747 747 748 748 748 749 749 750 750 750 751 751 751 752 753 753 754 755 756 757 758 759 761 762 763 764 766 767 768 770 771 773 774 776 777 778 779 781 782 783 784 785 785 786 787 787 788 789 791 792 793 794 795 796 798 799 800 801 801
749 749 748 748 747 747 746 746 747 747 748 748 748 749 749 750 750 751 751 751 751 752 752 753 753 754 755 756 757 758 759 760 762 763 765 766 767 769 770 771 773 774 775 776 778 779 780 781 782 784 785 785 786 786 787 788 789 790 791 792 793 794 796 797 798 799 800 800 801
750 749 749 749 748 748 747 747 747 748 748 749 749 749 750 750 751 751 752 752 753 753 754 754 755 755 756 757 758 759 761 762 763 765 766 768 769 771 772 773 774 775 776 778 779 780 781 782 783 784 785 786 786 786 787 788 789 790 791 792 793 795 796 797 798 798 799 800 801
751 750 750 750 749 749 748 748 749 749 749 750 750 750 751 751 751 752 753 753 754 755 756 756 756 757 757 758 760 761 762 764 765 766 768 769 771 772 773 774 776 777 778 780 781 782 782 783 784 784 785 786 786 787 787 788 790 791 792 793 794 795 796 797 797 798 799 800 800
752 751 751 751 751 750 750 750 750 750 751 751 751 751 752 752 753 753 754 754 755 756 757 758 758 759 760 761 761 763 764 766 767 768 769 771 772 773 775 776 777 778 780 781 782 783 784 784 785 786 786 786 787 787 788 789 790 791 792 793 794 795 796 796 797 798 799 799 800
753 753 753 752 752 751 751 751 751 752 752 752 753 753 753 754 754 755 755 756 756 757 758 759 760 761 761 762 763 765 766 767 768 769 771 772 773 775 776 777 778 780 781 782 783 784 785 785 786 786 787 787 788 788 789 789 790 791 792 793 794 795 796 796 797 797 798 799 800
755 755 754 754 754 753 753 753 753 753 754 754 754 755 755 756 756 756 757 757 758 759 760 760 761 762 763 764 765 766 767 768 769 771 772 773 775 776 777 779 780 781 783 783 784 785 786 786 787 787 788 788 788 789 789 790 791 791 793 793 794 795 795 796 796 797 798 799 800
757 756 756 756 756 756 756 756 756 756 756 756 756 756 757 758 758 759 759 760 760 761 761 762 762 763 764 765 766 767 768 769 771 772 773 775 776 778 779 781 782 783 784 785 785 786 786 787 787 788 788 789 789 789 790 791 791 792 793 793 794 795 795 796 797 797 798 799 800
759 758 758 758 758 758 758 758 758 758 758 758 758 759 759 760 761 761 761 762 762 763 763 763 764 764 765 766 767 768 769 771 772 773 775 776 778 779 781 782 783 784 785 786 786 786 787 787 788 788 789 789 790 790 790 791 791 792 792 793 794 795 796 796 797 798 799 800 801
760 760 760 760 760 760 760 760 760 760 760 760 760 761 761 762 762 763 763 764 764 764 764 765 765 766 767 768 769 770 771 772 773 775 776 777 779 780 782 783 784 785 786 786 787 787 788 788 789 789 790 790 790 790 790 791 791 792 793 794 795 796 796 797 798 799 800 801 802
762 761 761 761 761 762 761 761 761 761 762 762 762 763 763 764 764 765 765 765 766 766 766 766 767 768 769 770 771 771 772 773 775 776 777 778 780 781 782 784 785 786 787 787 788 788 789 789 789 790 790 790 790 790 790 791 792 793 794 795 796 796 797 798 799 800 801 802 802
763 763 763 763 763 763 763 763 763 763 763 764 764 764 765 765 766 766 766 767 767 767 768 768 769 770 770 771 772 773 774 775 776 777 778 780 781 782 783 785 786 787 788 788 789 789 790 790 790 790 790 790 790 790 791 792 793 794 795 796 797 798 799 800 800 801 801 802 802
765 765 765 765 765 765 765 765 765 765 765 765 766 766 766 767 767 768 768 769 769 769 770 770 771 771 772 773 773 774 775 776 777 778 780 781 782 783 785 786 787 789 789 790 790 790 790 790 790 790 790 790 791 791 792 793 794 795 796 797 798 799 800 800 801 801 802 802 802
767 766 766 766 766 766 766 766 766 766 766 766 767 767 768 768 769 770 770 770 771 771 771 772 772 773 773 774 775 776 776 777 778 780 781 782 783 785 786 787 789 790 790 790 790 790 790 790 790 790 791 791 792 793 794 795 796 796 797 798 799 799 800 801 801 801 802 802 802
768 768 768 768 768 768 768 768 768 768 768 768 769 769 770 771 771 772 772 772 772 773 773 773 774 774 775 776 776 777 778 779 780 781 783 784 785 786 787 788 790 790 791 791 791 791 791 791 791 791 792 792 793 794 795 796 796 797 798 799 799 800 801 801 801 801 802 802 802
769 769 769 769 769 770 770 770 770 770 770 770 771 771 772 772 773 774 774 774 774 774 775 775 776 776 777 777 778 779 780 781 782 783 784 786 786 787 788 789 790 791 791 791 791 792 792 792 793 793 793 794 795 795 796 797 797 798 799 799 800 800 801 801 801 802 802 802 802
771 771 771 771 771 771 771 771 771 772 772 772 773 773 774 774 775 776 776 776 776 776 776 777 777 778 778 779 780 781 781 783 784 785 786 787 788 789 789 790 791 791 792 793 793 793 793 794 794 794 795 795 796 796 797 797 798 799 799 800 801 801 801 802 802 802 802 802 802
773 772 772 772 773 773 773 773 773 774 774 774 775 775 776 776 777 777 777 778 778 778 778 778 779 780 780 781 781 782 783 784 785 786 787 788 789 790 791 791 792 793 793 794 794 794 795 795 795 795 796 796 796 797 797 798 799 799 800 801 801 801 802 802 802 802 802 802 802
774 774 774 774 774 774 774 775 775 776 776 776 777 777 778 778 778 779 779 779 779 780 780 780 781 781 782 782 783 784 785 786 787 788 789 790 791 791 792 792 793 794 795 795 795 795 796 796 796 796 796 797 797 798 798 799 799 800 801 801 801 802 802 802 802 802 802 802 802
Wind_Speed
19 21 21 22 23 23 23 22 22 23 23 23 23 23 23 25 25 25 25 25 25 25 25 26 28 29 29 30 32 33 35 34 32 31 32 32 32 31 29 28 28 30 35 40 41 41 39 37 36 36 36 36 36 35 34 33 32 31 30 30 30 29 27 24 22 20 19 16 14
14 18 20 21 22 22 22 23 22 22 23 23 23 24 25 26 26 26 25 25 26 25 25 25 27 28 30 30 32 33 34 34 32 31 32 33 34 33 31 31 32 34 36 38 39 39 38 36 36 35 36 36 36 35 35 34 33 33 32 32 32 30 27 24 22 20 18 15 13
7 11 15 19 21 22 22 23 23 23 24 24 24 24 25 26 26 26 26 26 26 26 25 25 26 28 29 30 31 32 33 33 32 32 33 34 34 34 33 33 34 35 36 36 37 37 37 35 35 34 35 35 35 35 35 35 35 34 34 33 32 30 26 24 22 20 17 15 14
4 6 9 14 18 21 22 23 23 24 25 25 24 25 25 25 25 26 26 25 25 25 25 26 26 27 28 29 30 31 32 32 32 32 33 34 34 34 33 33 34 34 35 35 35 35 35 34 33 34 34 34 34 34 35 35 35 34 34 34 33 30 27 25 23 20 18 16 16
5 5 6 9 14 19 22 24 24 25 25 25 24 24 24 25 25 25 25 24 24 24 25 25 25 25 26 27 28 29 30 31 31 32 32 33 33 33 33 33 34 34 34 34 34 33 33 33 33 34 34 34 33 34 34 34 33 33 33 33 31 29 27 25 22 20 19 18 19
6 5 6 8 11 14 19 22 24 25 25 24 24 24 24 24 25 24 24 23 23 23 23 23 23 23 24 25 27 28 28 29 30 31 31 32 32 33 33 33 33 33 33 33 32 32 32 32 33 34 34 33 33 33 33 32 31 30 30 30 29 28 26 24 21 20 21 22 22
8 6 5 6 8 12 15 19 22 24 25 25 25 25 25 25 24 24 23 22 22 21 21 21 22 22 23 24 25 26 27 28 29 30 31 31 32 33 33 33 33 32 32 32 31 31 32 32 32 32 32 32 32 31 30 29 29 28 28 27 27 25 24 22 22 23 24 25 24
10 8 6 5 6 8 12 15 19 22 24 25 25 26 26 25 24 23 22 21 20 20 20 21 21 22 22 23 24 26 26 28 29 30 31 31 32 33 33 33 32 31 31 31 32 32 32 32 32 32 32 31 30 29 28 27 27 27 27 26 24 23 23 24 25 26 26 26 24
12 11 9 7 6 6 8 11 15 19 22 24 26 26 26 25 23 22 21 20 20 20 21 21 22 22 22 23 24 25 26 28 29 30 31 32 32 32 32 32 32 31 31 31 31 32 32 32 31 32 31 31 29 27 26 25 25 26 26 25 24 24 25 26 27 27 26 25 23
12 12 11 10 8 6 7 9 12 16 20 23 25 25 24 23 21 20 19 20 20 20 21 22 23 23 23 23 24 25 27 28 29 30 31 31 31 32 32 31 31 31 30 30 30 30 31 31 32 31 30 29 27 25 24 24 25 25 25 25 26 27 27 27 27 26 24 23 21
12 12 12 11 10 8 7 7 9 12 16 20 23 23 22 20 19 18 19 19 20 20 21 22 23 23 23 23 24 25 26 27 28 29 30 30 30 30 30 30 30 29 28 28 28 29 31 31 31 30 28 26 25 24 24 24 25 26 26 27 28 28 27 26 25 23 22 21 20
11 11 11 11 10 9 8 7 8 10 13 17 19 20 19 18 17 17 18 18 19 20 20 21 22 22 23 24 25 25 26 26 27 28 28 28 28 28 28 27 27 27 27 27 28 30 30 30 30 28 26 24 23 23 24 25 26 27 28 29 28 27 26 24 23 21 21 20 19
11 10 10 10 10 9 8 7 7 9 11 14 15 16 17 17 17 17 17 18 18 19 20 20 21 22 23 24 25 26 26 26 26 26 27 27 27 27 27 26 26 26 26 28 28 29 29 28 27 26 25 23 23 24 26 27 28 29 30 29 28 26 25 23 22 21 20 19 19
11 10 10 10 9 8 7 7 7 7 9 11 13 14 16 17 17 17 17 18 19 19 20 20 21 22 23 24 25 26 26 26 26 25 25 26 26 26 26 26 25 26 26 27 27 27 26 26 25 25 24 24 24 25 26 28 29 29 29 29 27 26 24 23 22 21 20 20 19
12 11 10 10 9 8 7 6 6 7 8 10 12 14 15 16 17 17 17 18 19 19 20 20 21 22 23 24 24 25 25 25 24 24 24 25 25 26 25 25 25 25 26 26 25 25 24 24 23 23 24 24 25 26 27 27 28 29 28 28 27 25 24 23 22 21 20 19 18
13 12 11 10 10 9 7 6 6 7 8 10 11 13 14 15 16 17 17 17 18 19 20 20 21 22 23 23 23 23 23 23 23 23 23 24 24 24 25 24 24 23 24 24 23 22 22 22 22 23 24 25 26 26 27 27 27 28 27 27 26 25 24 22 21 20 19 18 17
15 14 12 11 10 9 7 6 6 7 9 10 11 12 13 14 15 16 17 18 19 19 19 20 20 21 22 23 23 22 22 22 22 23 22 22 22 23 22 22 21 21 21 22 21 21 21 22 23 24 25 26 27 27 27 27 27 27 26 26 25 24 22 21 19 18 17 17 17
17 16 15 13 11 9 8 8 8 9 10 11 12 12 13 13 14 15 16 17 17 18 18 19 19 20 21 21 21 21 21 21 21 21 20 20 20 20 20 19 19 19 19 20 20 21 22 23 24 25 26 27 28 28 28 27 27 26 25 24 23 22 21 19 18 17 17 16 16
18 17 15 14 12 10 8 8 9 9 10 11 12 12 12 12 13 13 14 15 15 16 17 17 17 18 19 19 19 19 20 20 19 19 18 18 18 18 18 18 18 18 19 20 20 21 23 24 25 26 26 26 27 27 27 27 26 25 24 22 21 20 19 18 17 16 15 14 13
17 16 14 12 10 9 8 8 8 9 9 10 10 10 11 11 12 13 13 14 14 15 16 16 16 17 18 18 18 18 18 18 18 18 17 17 17 17 18 18 19 19 20 21 21 22 23 24 25 25 25 26 26 27 26 26 25 23 22 21 20 19 18 17 15 14 13 12 11
14 13 11 10 8 7 6 7 7 7 7 7 8 8 9 10 12 13 13 14 15 16 16 16 16 17 17 18 18 17 17 17 18 18 18 18 18 19 19 20 20 21 21 22 22 23 23 24 24 24 25 26 26 26 25 24 23 22 21 20 19 17 16 15 13 12 11 10 9
12 10 9 7 6 5 4 3 4 4 5 6 8 9 10 11 12 13 14 15 16 16 16 16 17 17 17 18 18 18 18 18 19 19 20 20 20 20 21 21 22 22 22 22 22 23 24 24 24 24 25 25 25 24 24 23 22 21 20 19 17 16 14 13 11 10 9 9 8
9 7 6 4 3 1 2 3 5 6 7 8 9 10 11 12 12 13 14 15 16 16 16 16 17 17 18 18 18 19 20 20 20 20 21 21 21 21 22 22 22 22 22 22 23 24 25 24 24 24 24 24 23 23 22 22 21 20 19 17 16 14 13 11 10 9 9 8 7
6 4 3 2 2 3 5 6 8 9 10 11 12 12 12 13 14 14 15 16 16 16 17 17 17 18 19 19 20 20 21 21 22 22 22 22 22 22 23 23 22 23 23 23 24 25 25 25 24 24 23 23 22 22 21 20 19 18 17 16 14 13 12 10 9 8 7 7 6
3 2 2 4 5 6 8 9 10 11 12 13 13 14 14 15 15 16 16 16 16 16 17 18 19 19 20 20 21 21 22 22 23 23 23 23 23 23 23 22 22 23 23 23 23 24 24 24 24 24 23 22 22 21 20 18 17 16 15 14 13 12 10 9 8 7 6 5 4
5 5 5 6 7 9 10 11 12 13 14 15 15 15 16 16 17 17 17 18 17 17 18 19 20 20 21 22 22 22 22 23 23 23 23 23 23 22 22 22 22 22 21 21 21 21 21 22 22 23 22 22 21 20 18 17 15 14 13 12 11 10 9 8 6 5 4 4 3
8 8 8 8 10 11 12 13 14 15 16 16 16 17 17 17 18 18 19 19 19 19 20 20 21 22 22 22 22 22 22 22 22 22 23 23 23 22 22 22 21 20 20 19 19 19 19 19 20 20 20 20 19 18 17 16 14 13 11 10 9 8 8 7 6 5 5 4 4
10 10 11 11 13 14 14 15 16 16 17 17 18 18 18 18 19 20 20 21 21 21 21 22 22 22 22 22 22 22 22 22 22 22 22 22 22 22 22 21 21 20 19 18 18 17 17 17 18 18 18 17 17 16 15 14 13 12 11 10 9 8 7 7 7 6 5 5 4
11 12 13 14 14 15 15 16 17 17 18 18 18 19 19 19 20 21 22 22 22 22 22 22 22 22 22 22 22 22 22 22 22 22 22 22 22 22 22 21 20 19 18 18 18 17 16 16 16 16 15 15 15 14 14 13 12 11 10 9 9 8 8 8 7 6 6 5 4
13 13 14 15 16 16 16 17 18 18 19 19 19 20 20 20 20 21 21 21 22 22 22 21 22 22 23 24 24 24 24 23 23 23 24 24 23 23 21 20 19 19 18 18 17 17 16 15 15 14 14 13 13 13 12 11 11 10 10 10 9 9 9 8 7 6 6 5 4
14 15 15 16 16 17 17 17 18 19 19 19 20 20 20 20 20 20 20 20 21 20 20 21 22 23 24 24 24 25 25 25 25 25 25 24 22 22 21 20 19 18 18 18 17 16 15 14 14 13 12 12 11 11 11 11 11 11 11 11 10 10 9 8 8 7 7 7 7
15 16 16 17 17 17 17 18 19 19 20 20 20 20 20 20 19 19 19 20 20 20 21 22 23 23 24 25 25 26 26 26 26 25 25 24 23 22 21 20 19 19 18 17 17 15 14 13 12 12 11 11 11 11 12 12 12 12 12 11 11 10 10 9 9 9 8 8 7
16 16 16 17 17 17 18 18 19 19 19 19 19 19 19 19 19 19 19 19 20 21 22 23 24 24 24 25 26 26 26 25 25 24 23 23 23 22 21 20 19 19 18 16 15 14 12 12 11 11 11 11 12 12 13 13 13 13 13 12 12 11 10 10 9 8 7 6 5
16 16 17 17 17 17 17 18 18 19 19 19 19 19 19 19 19 19 19 20 21 21 22 23 24 25 25 26 26 26 25 24 24 24 23 23 23 22 21 20 19 18 16 15 14 13 12 12 12 12 12 12 13 13 13 13 13 13 13 13 12 11 10 9 8 6 5 3 2
15 16 16 16 16 16 17 17 18 18 18 19 19 19 19 19 19 19 20 21 22 23 24 24 25 25 25 25 25 25 25 25 24 24 24 24 23 23 22 20 19 17 15 13 13 12 12 12 12 12 13 13 14 14 14 14 14 14 14 13 12 10 8 7 5 4 3 2 2
14 15 15 15 16 16 16 17 17 18 18 19 19 19 19 19 20 20 20 21 23 24 25 25 25 25 25 25 25 25 25 25 25 25 24 24 23 23 22 20 18 15 13 12 12 12 13 13 13 13 14 14 15 15 15 15 14 13 12 11 10 8 7 6 5 5 4 4 4
14 14 15 15 15 16 16 17 18 18 19 19 20 20 20 20 20 20 21 22 24 25 25 25 25 25 25 25 25 25 25 25 25 25 24 23 22 22 21 19 17 14 12 11 13 14 14 14 14 14 15 15 15 15 14 14 13 12 10 9 9 8 7 6 6 6 6 6 6
15 15 16 16 17 17 18 18 19 20 20 20 20 20 21 21 20 20 21 22 24 25 25 25 25 25 26 26 25 25 25 24 24 23 22 21 20 20 19 18 16 13 12 13 14 15 15 15 15 14 14 14 14 13 12 12 11 10 9 9 8 8 7 7 7 6 6 6 6
16 17 17 18 19 19 19 19 20 20 20 20 20 20 20 20 20 20 21 22 24 25 25 25 25 25 25 25 25 25 24 23 22 21 20 19 18 18 17 17 16 14 14 14 14 15 15 15 15 14 14 13 12 11 11 10 10 10 9 9 8 8 7 7 6 6 6 6 6
17 18 18 19 19 20 20 20 20 20 20 20 20 20 20 20 20 21 22 23 24 24 25 25 24 24 24 24 24 24 23 21 20 19 19 18 17 17 16 16 16 15 14 14 14 14 15 15 15 14 14 13 12 11 10 10 10 9 9 8 8 7 6 6 5 5 5 5 6
17 18 19 19 19 20 20 20 20 20 20 20 20 20 20 20 21 21 22 23 23 23 24 24 23 23 23 23 22 22 21 20 19 18 18 17 17 16 16 16 16 15 14 13 13 13 13 13 13 13 13 13 12 10 9 9 9 9 9 8 7 6 5 4 4 3 4 5 6
Wind_Direction
245 240 238 236 235 232 230 228 227 227 228 229 229 229 228 228 228 229 229 228 226 224 223 223 222 221 220 218 217 215 214 215 225 232 233 229 225 224 227 232 231 231 231 232 230 228 225 224 223 223 223 222 220 218 218 219 223 225 223 218 213 210 210 214 217 214 207 203 202
253 246 241 238 236 235 235 235 231 230 231 233 232 231 230 230 231 231 230 229 228 227 225 223 224 224 222 221 221 218 216 217 224 231 233 230 226 225 227 230 231 229 226 226 224 222 221 220 219 218 218 219 218 217 217 219 222 224 222 217 211 207 206 208 209 207 202 198 194
270 254 246 241 239 238 238 238 237 237 237 236 235 235 233 233 233 233 232 231 231 229 227 224 225 225 224 222 222 221 219 218 221 226 228 227 224 224 225 226 225 223 222 220 219 219 219 218 217 216 217 218 218 218 218 219 221 221 218 214 209 204 201 200 200 199 195 192 187
312 277 256 246 241 239 240 240 241 241 240 239 237 236 236 236 236 236 235 234 233 230 228 226 225 224 224 222 221 221 220 220 221 222 223 222 221 222 223 223 221 220 219 218 218 218 218 217 217 216 217 218 218 218 219 219 218 216 213 209 204 199 196 196 196 194 189 184 182
337 308 279 260 249 244 242 243 244 244 244 242 240 239 239 238 239 239 239 237 234 231 230 228 225 223 222 221 220 219 219 220 220 221 220 220 219 220 220 220 219 218 218 217 217 217 217 216 215 215 215 217 218 219 218 217 213 209 205 202 198 195 194 195 193 188 182 178 178
355 328 298 278 265 255 249 246 246 246 246 245 244 243 242 242 241 240 239 239 237 235 232 229 225 222 220 218 217 216 216 216 217 217 217 216 216 216 216 216 216 216 216 215 214 214 214 213 211 211 212 215 216 217 216 213 207 201 196 192 191 191 193 191 185 180 176 173 169
4 349 319 290 275 266 258 253 250 248 247 246 246 245 245 245 244 242 241 240 240 237 234 229 224 220 217 215 212 211 211 211 211 211 212 212 212 212 211 211 212 212 212 211 211 210 210 209 207 208 210 213 214 214 212 208 201 194 189 185 185 186 186 181 177 174 171 167 162
357 354 342 316 286 272 266 261 257 253 250 249 249 248 248 248 246 245 244 243 241 239 235 229 223 219 215 212 208 206 205 205 205 206 207 208 209 208 208 209 209 209 209 209 208 207 207 206 206 207 210 212 213 212 208 202 195 190 185 181 178 177 175 171 170 169 167 163 160
346 346 343 336 315 287 272 266 263 259 255 252 251 250 250 250 249 247 246 244 242 239 234 229 224 220 215 209 205 202 201 202 202 203 204 206 206 206 206 207 207 206 207 207 206 206 205 206 207 209 211 213 212 209 203 196 189 185 182 176 170 166 165 165 165 165 164 163 162
338 337 336 334 328 312 288 272 266 263 260 256 254 253 252 252 251 249 246 244 241 238 233 229 225 220 213 206 202 200 200 200 200 201 202 204 205 205 205 205 205 204 203 204 204 205 206 207 208 209 211 212 210 204 196 189 184 180 175 169 163 160 160 161 163 163 163 164 165
335 332 330 328 326 320 305 285 272 266 262 260 257 254 254 253 252 249 246 242 240 235 231 228 223 217 210 204 200 199 199 199 200 201 202 203 204 204 204 203 203 202 202 203 203 204 205 207 207 208 208 208 204 196 188 182 179 173 167 162 158 156 156 157 160 162 163 165 166
336 332 329 326 323 320 312 299 285 273 266 261 257 254 253 252 250 247 244 240 236 233 230 227 221 214 208 203 200 199 199 199 200 201 201 202 202 202 201 200 200 201 202 203 203 204 205 206 206 205 203 200 195 188 181 177 173 167 162 159 158 157 156 157 159 161 163 164 160
337 336 334 331 327 323 318 310 298 282 268 260 255 252 250 249 247 245 241 237 233 230 228 224 220 213 207 202 201 200 200 200 200 200 200 200 199 198 197 198 199 200 201 202 203 203 204 204 204 202 197 191 185 180 176 174 171 165 161 160 161 161 161 159 158 158 158 155 150
338 340 341 339 336 332 326 317 303 284 268 258 253 250 248 246 244 242 239 236 231 228 224 219 215 210 206 203 201 200 200 200 199 197 196 196 196 195 195 197 198 199 200 201 202 203 202 201 200 196 191 185 180 174 171 169 167 164 162 162 162 161 159 155 154 152 149 146 144
338 341 343 343 341 338 330 318 299 282 269 261 253 249 246 243 240 238 236 232 229 227 222 215 208 206 205 204 200 199 198 196 194 192 191 192 193 194 196 197 198 198 198 199 199 200 199 197 194 189 185 180 175 170 166 165 164 164 164 163 163 159 154 150 148 147 147 147 148
339 340 341 339 334 330 324 311 294 283 274 265 255 249 244 239 236 233 229 226 225 223 218 211 204 200 199 200 198 195 193 191 190 189 190 191 192 194 196 197 196 195 195 194 194 193 192 189 185 180 175 170 166 164 163 162 163 163 163 162 159 154 150 148 148 150 152 155 158
344 345 345 341 333 325 316 302 291 282 274 264 255 247 240 235 231 227 223 220 218 213 207 202 198 194 191 191 191 189 188 187 187 188 189 190 191 192 192 192 190 189 188 188 185 183 180 176 173 169 166 163 161 160 160 161 161 160 158 156 152 150 149 150 153 156 159 163 166
345 347 347 346 340 328 312 296 283 272 263 254 246 239 234 230 225 220 215 213 209 202 194 189 189 188 186 184 184 184 184 184 185 186 186 186 187 186 185 183 181 180 179 178 176 174 171 166 163 161 160 159 158 158 158 157 155 153 151 149 148 149 150 153 157 160 164 167 170
343 343 343 342 337 326 307 289 276 263 251 242 233 227 223 220 216 210 204 200 196 191 184 180 179 180 180 179 179 180 181 181 181 180 180 179 178 176 174 172 170 169 168 167 166 165 163 160 158 156 155 154 153 153 152 150 148 147 146 146 148 150 153 156 159 162 166 169 174
340 339 337 333 328 317 299 282 270 257 244 231 219 211 206 203 202 197 190 185 182 179 176 172 170 170 172 173 174 174 175 176 174 172 170 168 166 165 164 163 161 160 159 159 158 157 156 155 154 153 151 150 148 147 145 144 144 144 146 148 151 153 156 158 160 163 167 172 178
337 335 330 324 316 304 288 272 260 245 226 206 191 184 181 179 180 181 179 176 173 170 167 164 163 163 164 166 167 166 165 166 164 161 160 159 157 157 157 156 155 154 154 153 152 152 151 151 150 149 148 147 145 144 143 144 145 147 149 151 154 156 157 159 162 165 170 175 180
335 332 326 319 309 294 272 246 215 193 178 166 157 154 155 156 160 164 167 168 166 162 159 158 157 157 157 158 158 158 157 154 153 153 152 151 150 151 152 152 151 149 149 149 148 149 149 149 149 148 147 146 145 146 147 148 150 151 152 153 155 156 158 161 164 168 173 176 178
336 333 331 332 326 289 170 153 146 143 142 141 141 141 142 142 146 151 154 156 156 153 151 150 149 150 151 151 152 151 149 146 145 145 145 144 143 144 146 147 146 146 146 147 148 149 149 148 148 148 148 148 148 150 151 152 153 153 153 154 155 156 158 162 166 169 172 173 174
345 345 356 28 90 123 134 138 137 135 134 133 134 135 136 136 139 141 143 144 144 144 143 143 143 143 145 146 146 145 143 140 138 137 137 138 138 139 141 143 144 145 147 149 151 152 151 149 148 149 150 151 151 152 153 153 154 154 154 154 155 156 158 161 163 164 164 165 167
32 47 76 101 117 125 129 131 132 132 130 131 132 132 132 132 134 134 134 133 134 136 137 135 136 137 138 138 139 139 138 136 134 132 132 134 137 139 142 143 145 146 147 149 151 152 153 152 152 152 152 153 152 152 152 152 152 152 152 152 153 153 153 153 153 153 152 152 152
79 93 102 110 118 121 123 124 126 126 127 129 129 128 128 129 129 128 126 125 126 126 126 126 128 129 131 132 132 132 132 132 133 134 134 136 139 141 143 144 144 143 144 145 147 149 151 153 155 155 155 153 152 150 148 147 147 147 146 145 145 144 142 140 138 137 133 127 118
86 94 102 110 114 115 117 121 123 124 124 125 124 123 124 125 124 123 122 121 121 121 121 121 121 122 124 126 127 128 130 132 134 136 138 139 141 141 142 141 140 138 138 140 142 145 148 151 154 155 155 152 149 146 143 141 140 139 138 137 136 134 130 125 120 114 107 99 91
84 91 99 105 106 108 111 116 117 118 118 119 120 120 121 120 120 119 119 120 120 119 119 118 120 121 123 125 127 129 132 134 136 138 139 140 140 139 138 136 133 132 133 135 137 139 141 145 150 153 153 150 147 144 141 138 136 135 132 129 125 120 115 109 103 97 93 88 86
83 90 95 98 99 102 105 109 110 112 114 115 116 117 117 117 116 117 118 118 118 118 119 121 124 126 127 128 131 133 134 135 136 137 137 136 135 133 130 128 128 129 130 130 130 131 134 137 143 147 149 149 146 143 139 136 132 128 123 117 111 105 100 96 92 89 90 93 100
84 88 91 92 94 96 99 102 105 108 111 112 113 113 113 113 113 115 116 118 119 121 124 127 129 130 130 132 133 133 132 133 134 133 132 129 126 125 124 124 125 126 127 127 126 126 128 133 138 142 144 143 141 136 131 126 120 115 109 104 99 96 94 92 93 97 104 115 130
85 88 89 91 91 93 95 98 102 105 107 109 110 110 110 111 112 114 117 120 123 126 129 131 130 129 129 131 131 130 129 129 129 129 127 124 122 121 122 123 124 124 124 123 124 124 126 130 133 134 133 131 127 122 115 108 104 100 98 97 96 97 98 102 107 114 123 133 143
87 89 90 91 91 93 95 98 101 103 105 106 108 108 109 111 113 117 120 123 125 127 128 128 126 125 125 127 126 126 126 125 125 124 123 123 122 122 122 121 120 120 120 119 119 120 121 122 121 119 116 113 108 102 97 94 94 94 96 99 102 106 110 116 121 127 133 141 147
90 92 92 92 93 95 98 100 102 104 105 106 107 108 110 113 115 117 119 120 122 122 123 123 122 121 122 122 122 122 122 122 122 122 122 122 122 121 118 116 115 114 115 115 113 111 109 106 104 102 99 95 92 89 89 90 94 99 104 108 112 116 120 124 129 133 139 144 152
92 94 95 95 96 99 101 103 105 106 107 107 108 109 111 113 113 114 114 116 118 119 120 121 121 121 121 122 122 121 121 121 121 121 121 121 120 118 115 112 111 112 112 109 105 100 96 92 90 89 87 85 85 86 90 96 103 109 114 117 119 121 123 125 127 129 132 136 147
92 95 96 97 99 101 102 104 106 107 107 106 106 108 110 111 111 112 114 117 119 119 119 120 121 121 121 122 122 121 120 119 119 119 119 119 117 114 112 110 110 110 109 104 97 90 85 83 82 82 83 85 89 95 102 109 114 117 119 120 119 119 117 115 111 105 95 74 41
92 95 95 96 98 99 101 103 105 105 104 104 104 106 107 109 111 113 116 119 119 119 118 118 119 119 118 118 118 118 118 118 118 117 116 116 115 113 111 111 111 110 105 96 87 81 79 80 82 85 89 95 102 110 115 118 119 119 119 117 114 110 104 97 88 78 66 53 37
92 94 95 95 95 96 99 101 102 101 101 102 104 106 107 109 110 114 118 120 119 118 117 117 117 116 115 115 114 115 116 118 117 116 115 115 114 113 113 113 112 108 99 88 82 81 83 86 90 94 101 108 115 119 121 120 119 117 115 111 106 100 93 85 76 67 58 49 37
93 96 96 96 95 96 98 99 99 99 100 102 104 107 109 111 111 114 117 120 119 117 116 116 115 114 115 115 115 115 116 116 116 115 114 113 114 114 115 113 111 104 96 90 90 92 92 93 97 101 107 113 118 120 119 118 115 112 109 104 99 93 85 75 67 59 51 43 34
96 98 99 99 98 99 99 99 99 99 101 103 105 108 110 111 112 114 118 120 119 117 115 114 113 114 116 117 116 115 115 114 114 113 113 113 114 114 114 113 109 105 102 101 103 103 101 98 98 99 101 104 107 110 112 111 110 107 103 98 93 87 79 69 60 52 43 35 28
98 100 101 100 101 101 100 100 100 102 104 106 108 109 111 112 114 117 119 120 119 118 116 114 114 115 117 118 117 116 115 114 113 112 113 113 114 115 114 113 111 110 110 111 110 107 103 99 95 92 91 92 94 98 102 105 105 104 101 97 92 87 79 69 58 48 35 23 13
99 100 101 101 101 101 101 101 103 105 108 110 110 111 113 116 117 119 120 120 119 118 117 116 117 118 118 118 117 116 115 113 113 113 114 115 116 116 116 115 115 116 116 115 112 110 106 99 92 87 84 85 86 89 94 99 103 105 105 102 97 92 87 76 61 44 26 10 360